Purchase, NY

11:19 AM EDT on August 25, 2016 (GMT -0400)
Westchester County

Weather History for KHPN - March, 2013

Change the Weather History Date:

Wednesday, March 6, 2013

  Actual Average Record
Temperature  
Mean Temperature 38 °F -  
Max Temperature 41 °F 40 °F 61 °F (1976)
Min Temperature 35 °F 26 °F 1 °F (2015)
Degree Days  
Heating Degree Days 27    
Moisture  
Dew Point 29 °F    
Average Humidity 70    
Maximum Humidity 83    
Minimum Humidity 62    
Precipitation  
Precipitation 0.00 in - - ()
Sea Level Pressure  
Sea Level Pressure 29.92 in    
Wind  
Wind Speed 11 mph (ENE)    
Max Wind Speed 22 mph    
Max Gust Speed 39 mph    
Visibility 9 miles    
Events Rain , Snow    
Averages and records for this station are not official NWS values.
T = Trace of Precipitation, MM = Missing Value Source: NWS Daily Summary

Daily Weather History Graph

Daily Weather History Graph

Search for Another Location

Airport or City:

Trip Planner

Search our weather history database for the weather conditions in past years. The results will help you decide how hot, cold, wet, or windy it might be!

Date:

Astronomy

Mar. 06, 2013 Rise Set
Actual Time 6:20 AM EST 5:51 PM EST
Civil Twilight 5:53 AM EST 6:19 PM EST
Nautical Twilight 5:21 AM EST 6:51 PM EST
Astronomical Twilight 4:49 AM EST 7:23 PM EST
Moon 2:29 AM EST (3/6) 12:28 PM EST (3/6)
Length of Visible Light 12h 25m
Length of Day
11h 30m
Waning Crescent, 30% of the Moon is Illuminated
Mar 6
Waning Crescent
Mar 11
New
Mar 19
First Quarter
Mar 27
Full
Apr 3
Last Quarter

Hourly Weather History & Observations

Time (EST) Temp. Windchill Dew Point Humidity Pressure Visibility Wind Dir Wind Speed Gust Speed Precip Events Conditions
12:56 AM 37.0 °F 33.3 °F 26.1 °F 65% 29.99 in 10.0 mi East 4.6 mph - N/A   Mostly Cloudy
1:56 AM 36.0 °F 32.1 °F 27.0 °F 70% 29.98 in 10.0 mi East 4.6 mph - N/A   Clear
2:56 AM 35.1 °F 32.2 °F 27.0 °F 72% 29.96 in 10.0 mi East 3.5 mph - N/A   Mostly Cloudy
3:56 AM 36.0 °F 28.0 °F 28.9 °F 76% 29.93 in 10.0 mi East 11.5 mph 18.4 mph N/A   Overcast
4:56 AM 37.9 °F 32.1 °F 28.9 °F 70% 29.94 in 10.0 mi East 8.1 mph 16.1 mph N/A   Overcast
5:56 AM 37.9 °F 30.9 °F 28.9 °F 70% 29.93 in 10.0 mi East 10.4 mph 18.4 mph N/A   Mostly Cloudy
6:56 AM 37.0 °F 28.1 °F 30.0 °F 76% 29.93 in 10.0 mi ENE 15.0 mph 24.2 mph N/A   Mostly Cloudy
7:56 AM 37.9 °F 28.5 °F 28.9 °F 70% 29.92 in 10.0 mi ENE 17.3 mph 24.2 mph N/A   Mostly Cloudy
8:56 AM 37.4 °F 28.5 °F 30.2 °F 75% 29.91 in 10.0 mi ENE 15.0 mph 27.6 mph N/A   Overcast
9:56 AM 39.0 °F 29.9 °F 30.9 °F 73% 29.92 in 10.0 mi ENE 17.3 mph 24.2 mph N/A   Overcast
10:56 AM 39.0 °F 29.3 °F 32.0 °F 76% 29.92 in 8.0 mi East 19.6 mph 38.0 mph 0.00 in Rain Light Rain
11:56 AM 41.0 °F 32.5 °F 32.0 °F 70% 29.89 in 10.0 mi ENE 17.3 mph 31.1 mph 0.00 in   Mostly Cloudy
12:40 PM 39.2 °F 29.6 °F 33.8 °F 81% 29.88 in 1.5 mi ENE 19.6 mph 33.4 mph 0.00 in Rain Rain
12:56 PM 39.9 °F 34.5 °F 35.1 °F 83% 29.88 in 10.0 mi ENE 8.1 mph 26.5 mph 0.00 in Rain Light Rain
1:10 PM 39.2 °F 31.2 °F 33.8 °F 81% 29.87 in 2.5 mi ENE 13.8 mph 28.8 mph N/A Rain Light Rain
1:56 PM 39.9 °F 32.5 °F 32.0 °F 73% 29.89 in 2.5 mi East 12.7 mph 23.0 mph N/A Rain Light Rain
2:03 PM 39.2 °F 31.2 °F 30.2 °F 70% 29.87 in 6.0 mi NE 13.8 mph 20.7 mph N/A Rain Light Rain
2:56 PM 39.0 °F 31.4 °F 28.9 °F 67% 29.89 in 6.0 mi NE 12.7 mph 29.9 mph N/A Rain Light Rain
3:56 PM 39.0 °F 29.9 °F 28.0 °F 65% 29.88 in 10.0 mi NNE 17.3 mph 27.6 mph N/A Rain Light Rain
4:56 PM 39.0 °F 29.9 °F 28.0 °F 65% 29.90 in 10.0 mi NE 17.3 mph 28.8 mph N/A Rain Light Rain
5:56 PM 39.0 °F 29.3 °F 27.0 °F 62% 29.90 in 10.0 mi NNE 19.6 mph 32.2 mph N/A   Overcast
6:56 PM 37.9 °F 27.3 °F 27.0 °F 65% 29.93 in 10.0 mi NNE 21.9 mph 38.0 mph N/A   Overcast
7:56 PM 37.0 °F 27.0 °F 26.1 °F 65% 29.94 in 10.0 mi NNE 18.4 mph 35.7 mph N/A   Overcast
8:56 PM 37.0 °F 27.7 °F 25.0 °F 62% 29.94 in 10.0 mi NNE 16.1 mph 39.1 mph N/A   Overcast
9:56 PM 37.0 °F 27.0 °F 25.0 °F 62% 29.94 in 10.0 mi NNE 18.4 mph 31.1 mph N/A   Overcast
10:56 PM 37.0 °F 28.5 °F 25.0 °F 62% 29.95 in 10.0 mi NNE 13.8 mph 26.5 mph N/A   Mostly Cloudy
11:56 PM 36.0 °F 27.1 °F 26.1 °F 67% 29.94 in 9.0 mi North 13.8 mph 26.5 mph N/A Snow Light Snow